Location: Castanheiras
(19.9158°S, 43.8730°W)
Time: 16:56:02
(UTC+00:00)

Daily predictions for brighter satellites

Satellite Brightness Start Highest point End
(mag) Time Altitude Azimuth Time Altitude Azimuth Time Altitude Azimuth
Palapa 6 Rocket 4.2 21:05:23 10° W 21:12:43 69° S 21:18:43 10° E
Envisat 3.0 21:09:39 10° SSE 21:14:46 79° E 21:19:51 10° N
Feng Yun 1-1 Rocket 4.3 21:09:29 10° SSE 21:15:19 70° ENE 21:20:56 10° N
ASTRO E2 2.8 21:11:23 10° WSW 21:15:24 78° NNW 21:19:24 10° ENE
Cosmos 1624 Rocket 4.4 21:12:29 10° NNW 21:17:48 72° WSW 21:23:09 10° S
STARLINK-1168 3.3 21:20:06 10° NW 21:23:28 75° SW 21:26:53 10° SSE
STARLINK-1164 3.3 21:20:56 10° NW 21:24:19 73° SW 21:27:44 10° SSE
Cosmos 1953 3.4 21:21:27 10° SSE 21:24:42 24° E 21:27:56 10° NE
STARLINK-1182 3.4 21:21:49 10° NW 21:25:11 71° SW 21:28:36 10° SSE
Cosmos 1244 Rocket 4.5 21:20:14 10° N 21:26:26 72° E 21:32:38 10° S
STARLINK-1172 3.5 21:23:57 10° NW 21:27:18 66° SW 21:30:41 10° SSE
Cosmos 1455 Rocket 4.5 21:23:13 10° SSW 21:27:21 43° W 21:31:26 10° NNW
Lacrosse 5 2.3 21:22:57 10° NW 21:28:00 68° WSW 21:33:06 10° SSE
STARLINK-1145 3.5 21:24:51 10° NW 21:28:13 64° SW 21:31:38 10° SSE
YAOGAN 1 3.8 21:25:21 10° SE 21:28:39 21° E 21:31:54 10° NNE
STARLINK-1161 3.6 21:25:46 10° NW 21:29:09 62° SW 21:32:33 10° SSE
Cosmos 1242 Rocket 2.4 21:26:18 10° N 21:29:53 79° E 21:33:33 10° S
IRS-1C Rocket 4.3 21:24:34 10° S 21:29:54 82° WSW 21:35:11 10° NNW
STARLINK-1160 3.7 21:26:43 10° NW 21:30:04 60° SW 21:33:29 10° SSE
Intelsat 5-1 Rocket 3.5 21:28:12 10° N 21:30:18 17° NE 21:32:51 12° ENE
Cosmos 2251 Rocket 4.3 21:25:14 10° SSW 21:30:27 59° WNW 21:35:40 10° N
GPS 2-14 Rocket1 2.7 21:27:14 10° WNW 21:31:13 78° N 21:34:36 15° E
SWIFT 2.3 21:29:02 10° W 21:33:17 89° S 21:36:46 15° E
CZ-2C R/B 4.1 21:34:03 12° ENE 21:36:40 16° ESE 21:39:56 10° SSE
ATLAS V CENTAUR R/B 3.4 21:26:21 10° W 21:36:43 70° N 21:38:50 17° ENE
ATLAS 5 CENTAUR R/B 1.7 21:33:29 10° SSW 21:38:07 77° WNW 21:42:14 10° NNE
Cosmos 1745 Rocket 4.4 21:32:43 10° NNE 21:38:21 39° E 21:44:01 10° SSE
Okean-O 2.6 21:34:52 10° SSE 21:39:20 71° ENE 21:43:44 10° N
Cosmos 1420 Rocket 3.9 21:36:39 10° NNW 21:41:49 85° ENE 21:47:02 10° SSE
Aureole 3 2.8 21:41:17 10° S 21:44:12 47° E 21:47:19 10° NNE
Cosmos 1470 3.3 21:40:48 10° SSW 21:44:39 61° W 21:48:27 10° N
Cosmos 2315 Rocket 4.1 21:38:28 10° S 21:44:44 83° W 21:51:00 10° N
SL-08 R/B 4.5 21:43:50 10° N 21:50:08 78° E 21:56:31 10° S
FengYun 1-2 T 4.4 21:48:51 10° S 21:54:29 78° WSW 21:59:59 10° NNW
STARLINK-1129 4.1 21:51:15 10° NNW 21:55:07 39° NE 21:56:35 28° E
Cosmos 2278 Rocket 2.4 21:51:18 10° N 21:56:42 47° ENE 22:02:08 10° SSE
USA 215 3.2 21:50:44 10° SE 21:57:21 82° NE 22:03:54 10° NW
Cosmos 371 Rocket 3.4 21:53:22 10° N 21:58:06 54° ENE 22:02:53 10° SSE
CZ-4 R/B 4.4 21:54:46 10° S 21:58:58 86° W 22:03:07 10° NNW
STARLINK-1134 3.9 21:56:08 10° NNW 22:00:06 45° NE 22:01:24 33° ESE
STARLINK-1162 3.9 21:56:26 10° NNW 22:00:26 47° NE 22:01:50 33° ESE
Cosmos 1674 2.6 21:57:44 10° N 22:01:26 85° W 22:05:13 10° S
Cosmos 1271 Rocket 4.4 21:59:17 10° NNW 22:02:44 34° W 22:06:17 10° SSW
Cosmos 1190 Rocket 4.1 21:58:55 10° S 22:04:06 51° ESE 22:09:15 10° NNE
STARLINK-1135 3.7 22:01:00 10° NNW 22:05:01 52° NE 22:06:09 39° ESE
STARLINK-1157 3.7 22:01:20 10° NNW 22:05:25 54° NE 22:06:38 39° ESE
STARLINK-1141 3.6 22:05:55 10° NNW 22:10:00 60° NE 22:10:57 46° ESE
DMSP B5D2-2 4.3 22:05:06 10° NNE 22:10:06 47° ESE 22:15:11 10° S
STARLINK-1159 3.6 22:06:15 10° NNW 22:10:22 63° NE 22:11:25 45° ESE
Cosmos 1140 Rocket 3.6 22:07:36 10° S 22:12:45 53° ESE 22:15:37 25° NE
Cosmos 1892 Rocket 3.5 22:09:04 10° N 22:13:32 89° WSW 22:18:00 10° S
CZ-2D R/B 3.1 22:09:50 10° SSE 22:13:44 86° E 22:17:35 10° N
Centaur D AC-29 3.1 12:14:23 10° WNW 22:14:03 57° NNE 22:17:35 31° E
Atlas Centaur 2 4.0 22:12:13 10° N 22:13:55 12° NNE 22:13:55 12° NNE
STARLINK-1140 3.5 22:10:51 10° NNW 22:14:58 70° NE 22:15:44 54° ESE
STARLINK-1171 3.5 22:11:11 10° NNW 22:15:20 73° NE 22:16:13 53° ESE
CSL-04 Rocket 3.6 22:10:07 10° SSE 22:15:32 63° ENE 22:20:50 10° N
USA 229 DEB 3.9 22:09:01 10° NNW 22:16:40 74° ENE 22:24:13 10° SSE
USA 229 3.9 22:09:06 10° NNW 22:16:47 73° ENE 22:24:20 10° SSE
FUSE 3.9 22:13:21 10° WNW 22:18:46 81° SSW 22:20:31 44° ESE
STARLINK-1156 3.4 22:15:48 10° NNW 22:19:56 81° NE 22:20:32 64° SE
Aurora 2 Rocket 2.3 22:16:58 10° WNW 22:20:05 54° N 22:20:05 54° N
STARLINK-1155 3.5 22:16:08 10° NW 22:20:18 84° NE 22:21:00 61° SE
STARLINK-43 4.4 22:18:34 10° SSW 22:21:03 34° S 22:21:03 34° S
CZ-2C R/B 3.7 22:18:31 10° N 22:23:04 79° WNW 22:27:34 10° SSW
Cosmos 1452 Rocket 4.5 22:19:27 10° NNW 22:24:32 48° WSW 22:29:40 10° S
STARLINK-1148 3.5 22:20:45 10° NW 22:24:54 88° SW 22:25:18 72° SSE
Cosmos 1606 Rocket 3.4 22:20:54 10° S 22:25:16 72° E 22:25:40 66° NE
STARLINK-1166 3.6 22:21:07 10° NW 22:25:18 85° SW 22:25:48 68° SSE
NOSS 3-1 (A) 4.3 22:17:08 10° N 22:25:52 58° ENE 22:31:52 21° SE
FALCON 9 R/B 3.0 22:18:51 10° WNW 22:27:49 38° SW 22:29:37 26° SSE
Cosmos 332 Rocket 3.7 22:22:58 10° NNW 22:27:52 88° ENE 22:31:11 21° SSE
Meteor 1-24 Rocket 3.5 22:23:48 10° N 22:29:06 87° E 22:34:33 10° S
STARLINK-1158 3.6 22:25:45 10° NW 22:29:52 77° SW 22:30:06 74° SSW
STARLINK-1165 3.7 22:26:06 10° NW 22:30:16 74° SW 22:30:35 69° SSW
CZ-4 R/B 3.0 22:26:54 10° S 22:30:37 35° WSW 22:34:14 10° NW
Cosmos 2228 3.3 22:26:34 10° S 22:29:56 54° S 22:29:56 54° S
Cosmos 676 Rocket 4.2 22:26:42 10° S 22:31:22 52° SE 22:31:22 52° SE
Meteor 2-5 Rocket 4.3 22:29:34 10° NNW 22:34:57 55° W 22:40:28 10° S
Intelsat 5-2 Rocket 3.7 22:32:31 10° W 22:34:00 36° W 22:34:00 36° W
Cosmos 1709 Rocket 3.8 22:29:03 10° N 22:35:05 68° E 22:41:12 10° S
STARLINK-1169 3.9 22:31:06 10° NW 22:35:15 64° SW 22:35:22 64° SW
Cosmos 407 Rocket 4.2 22:30:39 10° SSW 22:35:51 55° WNW 22:40:56 10° N
Meteosat 1 Rocket2 4.3 22:32:09 10° WSW 22:36:57 45° SSE 22:37:41 43° SE
Fermi 4.3 22:33:23 10° W 22:36:52 52° SW 22:36:52 52° SW
Cosmos 1726 3.7 22:35:25 10° SSW 22:38:52 35° W 22:42:17 10° NNW
STARLINK-1178 4.2 22:36:08 10° NW 22:40:10 55° SW 22:40:10 55° SW
Cosmos 1110 Rocket 4.2 22:38:04 10° N 22:42:05 55° N 22:42:05 55° N
Delta 2 Rocket 3.8 22:46:13 10° WSW 22:52:12 68° NNW 22:52:29 67° N
IUS-9 SRM-1 4.0 22:39:42 10° W 22:58:22 53° S 22:58:57 52° SSE
MOS 1 Rocket 4.0 23:00:06 60° WNW 23:00:26 61° W 23:05:36 10° SSW
Palapa 6 Rocket 3.9 22:55:28 10° WSW 23:01:02 65° WSW 23:01:02 65° WSW
CZ-2C R/B 3.8 23:15:35 36° WNW 23:16:31 38° W 23:21:32 10° SSW
Ariane H10+ 4.5 23:15:55 10° NW 23:17:00 12° NNW 23:17:00 12° NNW
